Time,TemperatureF,DewpointF,PressureIn,WindDirection,WindDirectionDegrees,WindSpeedMPH,WindSpeedGustMPH,Humidity,HourlyPrecipIn,Conditions,Clouds,dailyrainin,SoftwareType,DateUTC
2013-07-20 00:00:00,79.2,70.2,29.03,NE,45,0.0,0.0,74,0.00,,,0.00,VWS V14.01,2013-07-20 04:00:00,
2013-07-20 00:01:00,79.2,70.2,29.03,NE,45,0.0,0.0,74,0.00,,,0.00,VWS V14.01,2013-07-20 04:01:00,
2013-07-20 00:06:00,79.0,70.0,29.03,East,90,0.0,0.0,74,0.00,,,0.00,VWS V14.01,2013-07-20 04:06:00,
2013-07-20 00:11:00,79.0,70.4,29.03,NW,315,0.0,0.0,75,0.00,,,0.00,VWS V14.01,2013-07-20 04:11:00,
2013-07-20 00:16:00,78.8,70.2,29.03,South,180,0.0,0.0,75,0.00,,,0.00,VWS V14.01,2013-07-20 04:16:00,
2013-07-20 00:21:00,78.6,70.4,29.03,South,180,0.0,0.0,76,0.00,,,0.00,VWS V14.01,2013-07-20 04:21:00,
2013-07-20 00:26:00,78.6,70.8,29.03,SSE,158,0.0,0.0,77,0.00,,,0.00,VWS V14.01,2013-07-20 04:26:00,
2013-07-20 00:31:00,78.6,70.4,29.03,East,90,0.0,0.0,76,0.00,,,0.00,VWS V14.01,2013-07-20 04:31:00,
2013-07-20 00:36:00,78.4,70.2,29.03,SSW,202,0.0,0.0,76,0.00,,,0.00,VWS V14.01,2013-07-20 04:36:00,
2013-07-20 00:41:00,78.4,70.2,29.03,East,90,0.0,0.0,76,0.00,,,0.00,VWS V14.01,2013-07-20 04:41:00,
2013-07-20 00:46:00,78.4,70.2,29.03,NE,45,0.0,0.0,76,0.00,,,0.00,VWS V14.01,2013-07-20 04:46:00,
2013-07-20 00:51:00,78.4,70.2,29.03,North,0,0.0,0.0,76,0.00,,,0.00,VWS V14.01,2013-07-20 04:51:00,
2013-07-20 00:56:00,78.3,70.1,29.03,East,90,0.0,0.0,76,0.00,,,0.00,VWS V14.01,2013-07-20 04:56:00,
2013-07-20 01:01:00,78.3,70.1,29.03,SE,135,0.0,0.0,76,0.00,,,0.00,VWS V14.01,2013-07-20 05:01:00,
2013-07-20 01:06:00,78.1,69.9,29.03,East,90,0.0,0.0,76,0.00,,,0.00,VWS V14.01,2013-07-20 05:06:00,
2013-07-20 01:11:00,78.1,69.9,29.03,East,90,0.0,0.0,76,0.00,,,0.00,VWS V14.01,2013-07-20 05:11:00,
2013-07-20 01:16:00,77.9,69.7,29.03,East,90,0.0,0.0,76,0.00,,,0.00,VWS V14.01,2013-07-20 05:16:00,
2013-07-20 01:21:00,77.9,70.1,29.03,SW,225,0.0,0.0,77,0.00,,,0.00,VWS V14.01,2013-07-20 05:21:00,
2013-07-20 01:26:00,77.9,70.1,29.03,ESE,112,0.0,0.0,77,0.00,,,0.00,VWS V14.01,2013-07-20 05:26:00,
2013-07-20 01:31:00,77.7,69.9,29.03,ENE,68,1.1,1.1,77,0.00,,,0.00,VWS V14.01,2013-07-20 05:31:00,
2013-07-20 01:36:00,77.5,69.8,29.03,SE,135,0.0,0.0,77,0.00,,,0.00,VWS V14.01,2013-07-20 05:36:00,
2013-07-20 01:41:00,77.5,69.8,29.03,East,90,0.0,0.0,77,0.00,,,0.00,VWS V14.01,2013-07-20 05:41:00,
2013-07-20 01:46:00,77.4,70.0,29.03,SSW,202,0.0,0.0,78,0.00,,,0.00,VWS V14.01,2013-07-20 05:46:00,
2013-07-20 01:51:00,77.4,70.0,29.03,SSE,158,0.0,0.0,78,0.00,,,0.00,VWS V14.01,2013-07-20 05:51:00,
2013-07-20 01:56:00,77.4,70.0,29.03,South,180,0.0,0.9,78,0.00,,,0.00,VWS V14.01,2013-07-20 05:56:00,
2013-07-20 02:01:00,77.4,70.0,29.03,South,180,0.0,0.0,78,0.00,,,0.00,VWS V14.01,2013-07-20 06:01:00,
2013-07-20 02:06:00,77.4,70.0,29.03,SE,135,0.0,0.0,78,0.00,,,0.00,VWS V14.01,2013-07-20 06:06:00,
2013-07-20 02:11:00,77.2,69.8,29.03,SE,135,0.0,0.0,78,0.00,,,0.00,VWS V14.01,2013-07-20 06:11:00,
2013-07-20 02:16:00,77.2,69.8,29.03,ESE,112,0.0,0.0,78,0.00,,,0.00,VWS V14.01,2013-07-20 06:16:00,
2013-07-20 02:21:00,77.0,70.0,29.03,ESE,112,0.0,0.0,79,0.00,,,0.00,VWS V14.01,2013-07-20 06:21:00,
2013-07-20 02:26:00,76.8,69.8,29.03,South,180,0.0,1.1,79,0.00,,,0.00,VWS V14.01,2013-07-20 06:26:00,
2013-07-20 02:31:00,77.0,69.6,29.03,NE,45,0.0,0.0,78,0.00,,,0.00,VWS V14.01,2013-07-20 06:31:00,
2013-07-20 02:36:00,77.0,70.0,29.03,East,90,0.0,0.0,79,0.00,,,0.00,VWS V14.01,2013-07-20 06:36:00,
2013-07-20 02:41:00,77.0,70.0,29.03,West,270,0.0,0.0,79,0.00,,,0.00,VWS V14.01,2013-07-20 06:41:00,
2013-07-20 02:46:00,76.8,70.2,29.03,West,270,0.0,0.0,80,0.00,,,0.00,VWS V14.01,2013-07-20 06:46:00,
2013-07-20 02:51:00,76.6,70.0,29.03,SW,225,0.0,0.0,80,0.00,,,0.00,VWS V14.01,2013-07-20 06:51:00,
2013-07-20 02:56:00,76.6,70.0,29.03,ESE,112,0.0,0.0,80,0.00,,,0.00,VWS V14.01,2013-07-20 06:56:00,
2013-07-20 03:01:00,76.6,70.0,29.00,West,270,0.0,0.0,80,0.00,,,0.00,VWS V14.01,2013-07-20 07:01:00,
2013-07-20 03:06:00,76.6,70.0,29.00,SE,135,0.0,0.0,80,0.00,,,0.00,VWS V14.01,2013-07-20 07:06:00,
2013-07-20 03:11:00,76.5,69.8,29.00,ESE,112,0.0,1.6,80,0.00,,,0.00,VWS V14.01,2013-07-20 07:11:00,
2013-07-20 03:16:00,76.5,69.8,29.00,SSE,158,0.0,2.2,80,0.00,,,0.00,VWS V14.01,2013-07-20 07:16:00,
2013-07-20 03:21:00,76.5,69.8,29.00,NE,45,0.0,0.0,80,0.00,,,0.00,VWS V14.01,2013-07-20 07:21:00,
2013-07-20 03:26:00,76.5,69.8,29.00,SE,135,0.0,1.1,80,0.00,,,0.00,VWS V14.01,2013-07-20 07:26:00,
2013-07-20 03:31:00,76.5,69.8,29.00,ESE,112,0.0,0.9,80,0.00,,,0.00,VWS V14.01,2013-07-20 07:31:00,
2013-07-20 03:36:00,76.3,69.7,29.00,ESE,112,0.0,0.0,80,0.00,,,0.00,VWS V14.01,2013-07-20 07:36:00,
2013-07-20 03:41:00,76.3,69.7,29.00,SE,135,0.0,0.0,80,0.00,,,0.00,VWS V14.01,2013-07-20 07:41:00,
2013-07-20 03:46:00,76.3,69.7,29.00,SE,135,0.0,0.0,80,0.00,,,0.00,VWS V14.01,2013-07-20 07:46:00,
2013-07-20 03:51:00,76.3,69.7,29.00,SSE,158,0.0,0.0,80,0.00,,,0.00,VWS V14.01,2013-07-20 07:51:00,
2013-07-20 03:56:00,76.3,70.0,29.00,South,180,0.0,1.1,81,0.00,,,0.00,VWS V14.01,2013-07-20 07:56:00,
2013-07-20 04:01:00,76.1,69.8,29.00,SE,135,0.0,0.9,81,0.00,,,0.00,VWS V14.01,2013-07-20 08:01:00,
2013-07-20 04:06:00,76.3,69.7,29.00,SE,135,0.0,0.0,80,0.00,,,0.00,VWS V14.01,2013-07-20 08:06:00,
2013-07-20 04:11:00,76.1,69.5,29.00,SE,135,0.0,0.0,80,0.00,,,0.00,VWS V14.01,2013-07-20 08:11:00,
2013-07-20 04:16:00,76.1,69.5,29.00,SE,135,0.0,0.0,80,0.00,,,0.00,VWS V14.01,2013-07-20 08:16:00,
2013-07-20 04:21:00,76.1,69.5,29.00,East,90,0.0,0.0,80,0.00,,,0.00,VWS V14.01,2013-07-20 08:21:00,
2013-07-20 04:26:00,75.9,69.3,29.00,ESE,112,0.0,0.0,80,0.00,,,0.00,VWS V14.01,2013-07-20 08:26:00,
2013-07-20 04:31:00,75.9,69.3,29.00,ESE,112,0.0,1.3,80,0.00,,,0.00,VWS V14.01,2013-07-20 08:31:00,
2013-07-20 04:36:00,75.9,69.7,29.00,SE,135,0.0,0.0,81,0.00,,,0.00,VWS V14.01,2013-07-20 08:36:00,
2013-07-20 04:40:00,75.9,69.3,29.00,NW,315,0.0,0.0,80,0.00,,,0.00,VWS V14.01,2013-07-20 08:40:00,
2013-07-20 04:45:00,75.7,69.5,29.00,SE,135,0.0,0.9,81,0.00,,,0.00,VWS V14.01,2013-07-20 08:45:00,
2013-07-20 04:50:00,75.7,69.5,29.00,SE,135,0.0,1.1,81,0.00,,,0.00,VWS V14.01,2013-07-20 08:50:00,
2013-07-20 04:55:00,75.7,69.5,29.00,ESE,112,0.0,0.0,81,0.00,,,0.00,VWS V14.01,2013-07-20 08:55:00,
2013-07-20 05:01:00,75.6,69.7,28.97,SSE,158,0.0,1.3,82,0.00,,,0.00,VWS V14.01,2013-07-20 09:01:00,
2013-07-20 05:05:00,75.6,69.7,28.97,SW,225,0.0,0.0,82,0.00,,,0.00,VWS V14.01,2013-07-20 09:05:00,
2013-07-20 05:10:00,75.6,69.7,28.97,ESE,112,0.0,1.1,82,0.00,,,0.00,VWS V14.01,2013-07-20 09:10:00,
2013-07-20 05:15:00,75.6,69.3,28.97,SE,135,0.0,0.9,81,0.00,,,0.00,VWS V14.01,2013-07-20 09:15:00,
2013-07-20 05:20:00,75.6,69.7,28.97,SE,135,1.6,1.6,82,0.00,,,0.00,VWS V14.01,2013-07-20 09:20:00,
2013-07-20 05:25:00,75.6,69.3,28.97,South,180,0.0,0.0,81,0.00,,,0.00,VWS V14.01,2013-07-20 09:25:00,
2013-07-20 05:30:00,75.4,69.5,28.97,SE,135,0.0,0.0,82,0.00,,,0.00,VWS V14.01,2013-07-20 09:30:00,
2013-07-20 05:35:00,75.4,69.5,28.97,South,180,0.0,1.1,82,0.00,,,0.00,VWS V14.01,2013-07-20 09:35:00,
2013-07-20 05:40:00,75.2,69.7,28.97,ESE,112,0.0,1.6,83,0.00,,,0.00,VWS V14.01,2013-07-20 09:40:00,
2013-07-20 05:45:00,75.2,69.3,29.00,South,180,0.0,0.0,82,0.00,,,0.00,VWS V14.01,2013-07-20 09:45:00,
2013-07-20 05:50:00,75.2,69.7,29.00,WSW,248,0.0,0.0,83,0.00,,,0.00,VWS V14.01,2013-07-20 09:50:00,
2013-07-20 05:55:00,75.2,69.3,29.00,North,0,0.0,0.0,82,0.00,,,0.00,VWS V14.01,2013-07-20 09:55:00,
2013-07-20 06:00:00,75.2,69.3,29.00,North,0,0.0,0.0,82,0.00,,,0.00,VWS V14.01,2013-07-20 10:00:00,
2013-07-20 06:05:00,75.0,69.5,29.00,ESE,112,0.0,0.0,83,0.00,,,0.00,VWS V14.01,2013-07-20 10:05:00,
2013-07-20 06:10:00,75.0,69.2,29.00,East,90,0.0,0.0,82,0.00,,,0.00,VWS V14.01,2013-07-20 10:10:00,
2013-07-20 06:15:00,75.0,69.2,29.00,ESE,112,0.0,0.0,82,0.00,,,0.00,VWS V14.01,2013-07-20 10:15:00,
2013-07-20 06:20:00,75.0,69.2,29.00,SE,135,0.0,0.9,82,0.00,,,0.00,VWS V14.01,2013-07-20 10:20:00,
2013-07-20 06:25:00,75.0,69.2,29.00,SE,135,0.0,0.0,82,0.00,,,0.00,VWS V14.01,2013-07-20 10:25:00,
2013-07-20 06:30:00,75.0,69.2,29.00,East,90,0.0,0.0,82,0.00,,,0.00,VWS V14.01,2013-07-20 10:30:00,
2013-07-20 06:35:00,75.0,69.2,29.00,SE,135,1.1,1.3,82,0.00,,,0.00,VWS V14.01,2013-07-20 10:35:00,
2013-07-20 06:40:00,74.8,69.3,29.00,South,180,2.2,3.4,83,0.00,,,0.00,VWS V14.01,2013-07-20 10:40:00,
2013-07-20 06:45:00,74.8,69.3,29.03,East,90,0.0,1.3,83,0.00,,,0.00,VWS V14.01,2013-07-20 10:45:00,
2013-07-20 06:50:00,74.7,69.2,29.03,SE,135,0.9,1.1,83,0.00,,,0.00,VWS V14.01,2013-07-20 10:50:00,
2013-07-20 06:55:00,74.7,69.2,29.03,SSE,158,0.0,1.1,83,0.00,,,0.00,VWS V14.01,2013-07-20 10:55:00,
2013-07-20 07:00:00,74.8,69.3,29.00,ESE,112,0.0,1.3,83,0.00,,,0.00,VWS V14.01,2013-07-20 11:00:00,
2013-07-20 07:05:00,74.7,69.2,29.00,SW,225,0.9,1.3,83,0.00,,,0.00,VWS V14.01,2013-07-20 11:05:00,
2013-07-20 07:10:00,74.7,69.5,29.00,SE,135,0.0,0.9,84,0.00,,,0.00,VWS V14.01,2013-07-20 11:10:00,
2013-07-20 07:15:00,74.7,69.2,29.00,SE,135,0.0,0.0,83,0.00,,,0.00,VWS V14.01,2013-07-20 11:15:00,
2013-07-20 07:20:00,74.8,69.3,29.00,SSE,158,1.3,1.3,83,0.00,,,0.00,VWS V14.01,2013-07-20 11:20:00,
2013-07-20 07:25:00,74.8,69.3,29.00,ESE,112,0.0,0.9,83,0.00,,,0.00,VWS V14.01,2013-07-20 11:25:00,
2013-07-20 07:30:00,74.8,69.7,29.03,SSE,158,1.6,1.6,84,0.00,,,0.00,VWS V14.01,2013-07-20 11:30:00,
2013-07-20 07:35:00,75.0,69.5,29.03,NNE,22,0.0,0.0,83,0.00,,,0.00,VWS V14.01,2013-07-20 11:35:00,
2013-07-20 07:40:00,75.0,69.5,29.03,SW,225,0.0,0.0,83,0.00,,,0.00,VWS V14.01,2013-07-20 11:40:00,
2013-07-20 07:47:00,75.0,69.5,29.03,WNW,292,1.3,1.3,83,0.00,,,0.00,VWS V14.01,2013-07-20 11:47:00,
2013-07-20 07:52:00,75.2,69.3,29.03,South,180,1.1,1.1,82,0.00,,,0.00,VWS V14.01,2013-07-20 11:52:00,
2013-07-20 07:57:00,75.4,69.9,29.03,West,270,0.9,1.3,83,0.00,,,0.00,VWS V14.01,2013-07-20 11:57:00,
2013-07-20 08:02:00,75.4,69.9,29.03,South,180,1.3,2.0,83,0.00,,,0.00,VWS V14.01,2013-07-20 12:02:00,
2013-07-20 08:07:00,75.6,70.0,29.03,NW,315,1.1,1.3,83,0.00,,,0.00,VWS V14.01,2013-07-20 12:07:00,
2013-07-20 08:12:00,75.6,70.0,29.03,SE,135,1.3,2.5,83,0.00,,,0.00,VWS V14.01,2013-07-20 12:12:00,
2013-07-20 08:17:00,75.7,69.9,29.03,South,180,2.0,2.0,82,0.00,,,0.00,VWS V14.01,2013-07-20 12:17:00,
2013-07-20 08:22:00,75.7,70.2,29.03,East,90,1.1,1.1,83,0.00,,,0.00,VWS V14.01,2013-07-20 12:22:00,
2013-07-20 08:27:00,75.9,70.0,29.03,SSE,158,2.5,3.1,82,0.00,,,0.00,VWS V14.01,2013-07-20 12:27:00,
2013-07-20 08:32:00,75.9,70.0,29.03,SSW,202,0.0,0.9,82,0.00,,,0.00,VWS V14.01,2013-07-20 12:32:00,
2013-07-20 08:37:00,76.3,70.7,29.03,SSW,202,2.5,2.5,83,0.00,,,0.00,VWS V14.01,2013-07-20 12:37:00,
2013-07-20 08:42:00,76.3,70.4,29.03,WNW,292,0.0,1.3,82,0.00,,,0.00,VWS V14.01,2013-07-20 12:42:00,
2013-07-20 08:47:00,76.6,70.4,29.03,WSW,248,2.2,2.5,81,0.00,,,0.00,VWS V14.01,2013-07-20 12:47:00,
2013-07-20 08:52:00,76.8,70.9,29.03,WSW,248,1.3,2.7,82,0.00,,,0.00,VWS V14.01,2013-07-20 12:52:00,
2013-07-20 08:57:00,76.8,70.6,29.03,North,0,0.0,2.5,81,0.00,,,0.00,VWS V14.01,2013-07-20 12:57:00,
2013-07-20 09:02:00,77.0,70.4,29.06,SSW,202,2.5,2.7,80,0.00,,,0.00,VWS V14.01,2013-07-20 13:02:00,
2013-07-20 09:07:00,77.0,70.4,29.06,North,0,2.0,3.1,80,0.00,,,0.00,VWS V14.01,2013-07-20 13:07:00,
2013-07-20 09:12:00,77.2,70.5,29.06,NNW,338,2.7,3.1,80,0.00,,,0.00,VWS V14.01,2013-07-20 13:12:00,
2013-07-20 09:17:00,77.4,70.3,29.03,SW,225,1.6,1.6,79,0.00,,,0.00,VWS V14.01,2013-07-20 13:17:00,
2013-07-20 09:22:00,77.5,70.5,29.03,South,180,1.1,2.9,79,0.00,,,0.00,VWS V14.01,2013-07-20 13:22:00,
2013-07-20 09:27:00,77.5,70.5,29.03,SSE,158,0.9,2.9,79,0.00,,,0.00,VWS V14.01,2013-07-20 13:27:00,
2013-07-20 09:32:00,77.5,70.5,29.03,South,180,3.4,3.4,79,0.00,,,0.00,VWS V14.01,2013-07-20 13:32:00,
2013-07-20 09:36:00,77.9,70.9,29.03,SW,225,0.0,1.3,79,0.00,,,0.00,VWS V14.01,2013-07-20 13:36:00,
2013-07-20 09:41:00,78.1,71.0,29.03,WNW,292,2.0,2.0,79,0.00,,,0.00,VWS V14.01,2013-07-20 13:41:00,
2013-07-20 09:46:00,78.4,71.4,29.03,South,180,2.2,2.2,79,0.00,,,0.00,VWS V14.01,2013-07-20 13:46:00,
2013-07-20 09:51:00,78.6,71.2,29.03,West,270,4.0,4.3,78,0.00,,,0.00,VWS V14.01,2013-07-20 13:51:00,
2013-07-20 09:56:00,78.8,71.0,29.03,East,90,0.0,2.9,77,0.00,,,0.00,VWS V14.01,2013-07-20 13:56:00,
2013-07-20 10:01:00,79.0,71.2,29.03,NW,315,0.0,1.3,77,0.00,,,0.00,VWS V14.01,2013-07-20 14:01:00,
2013-07-20 10:06:00,79.2,71.3,29.03,SSE,158,4.3,4.3,77,0.00,,,0.00,VWS V14.01,2013-07-20 14:06:00,
2013-07-20 10:11:00,79.5,71.3,29.03,West,270,1.3,2.5,76,0.00,,,0.00,VWS V14.01,2013-07-20 14:11:00,
2013-07-20 10:16:00,79.5,70.9,29.03,NNW,338,1.6,2.0,75,0.00,,,0.00,VWS V14.01,2013-07-20 14:16:00,
2013-07-20 10:21:00,79.9,70.5,29.03,WNW,292,1.1,2.5,73,0.00,,,0.00,VWS V14.01,2013-07-20 14:21:00,
2013-07-20 10:26:00,79.9,70.5,29.03,SE,135,3.8,6.3,73,0.00,,,0.00,VWS V14.01,2013-07-20 14:26:00,
2013-07-20 10:31:00,80.1,69.8,29.03,SSW,202,3.4,3.4,71,0.00,,,0.00,VWS V14.01,2013-07-20 14:31:00,
2013-07-20 10:36:00,80.2,70.0,29.03,NNW,338,0.9,0.9,71,0.00,,,0.00,VWS V14.01,2013-07-20 14:36:00,
2013-07-20 14:41:00,85.6,66.6,29.00,South,180,4.9,4.9,53,0.00,,,0.00,VWS V14.01,2013-07-20 18:41:00,
2013-07-20 14:46:00,85.8,66.7,29.00,SE,135,2.9,3.1,53,0.00,,,0.00,VWS V14.01,2013-07-20 18:46:00,
2013-07-20 14:51:00,86.0,66.9,29.00,SSE,158,3.4,3.4,53,0.00,,,0.00,VWS V14.01,2013-07-20 18:51:00,
2013-07-20 14:56:00,86.0,65.8,28.97,West,270,2.9,3.1,51,0.00,,,0.00,VWS V14.01,2013-07-20 18:56:00,
2013-07-20 15:01:00,85.8,64.5,28.97,NW,315,1.6,3.4,49,0.00,,,0.00,VWS V14.01,2013-07-20 19:01:00,
2013-07-20 15:06:00,86.0,66.3,28.97,SSE,158,2.7,3.8,52,0.00,,,0.00,VWS V14.01,2013-07-20 19:06:00,
2013-07-20 15:11:00,86.2,65.9,28.97,SE,135,2.7,2.7,51,0.00,,,0.00,VWS V14.01,2013-07-20 19:11:00,
2013-07-20 15:16:00,86.2,65.9,28.97,SSE,158,3.6,3.6,51,0.00,,,0.00,VWS V14.01,2013-07-20 19:16:00,
2013-07-20 15:21:00,86.4,66.7,28.97,North,0,4.0,4.3,52,0.00,,,0.00,VWS V14.01,2013-07-20 19:21:00,
2013-07-20 15:27:00,86.5,64.5,28.97,SSE,158,7.6,7.6,48,0.00,,,0.00,VWS V14.01,2013-07-20 19:27:00,
2013-07-20 15:32:00,86.5,65.1,28.97,SSE,158,4.3,4.9,49,0.00,,,0.00,VWS V14.01,2013-07-20 19:32:00,
2013-07-20 15:37:00,86.5,65.1,28.97,East,90,2.0,2.5,49,0.00,,,0.00,VWS V14.01,2013-07-20 19:37:00,
2013-07-20 15:42:00,86.7,66.4,28.94,South,180,5.6,5.6,51,0.00,,,0.00,VWS V14.01,2013-07-20 19:42:00,
2013-07-20 15:47:00,86.5,65.1,28.94,SW,225,1.6,1.6,49,0.00,,,0.00,VWS V14.01,2013-07-20 19:47:00,
2013-07-20 15:52:00,86.7,65.3,28.94,WSW,248,1.6,2.9,49,0.00,,,0.00,VWS V14.01,2013-07-20 19:52:00,
2013-07-20 15:57:00,87.1,65.0,28.97,SSE,158,3.4,4.9,48,0.00,,,0.00,VWS V14.01,2013-07-20 19:57:00,
2013-07-20 16:02:00,86.9,65.5,28.97,SSE,158,3.8,3.8,49,0.00,,,0.00,VWS V14.01,2013-07-20 20:02:00,
2013-07-20 16:07:00,86.7,65.3,28.97,NW,315,2.5,2.7,49,0.00,,,0.00,VWS V14.01,2013-07-20 20:07:00,
2013-07-20 16:12:00,86.9,65.5,28.97,NNE,22,0.0,2.2,49,0.00,,,0.00,VWS V14.01,2013-07-20 20:12:00,
2013-07-20 16:17:00,86.9,67.2,28.97,WNW,292,0.9,2.7,52,0.00,,,0.00,VWS V14.01,2013-07-20 20:17:00,
2013-07-20 16:22:00,86.9,66.6,28.97,NW,315,5.4,6.0,51,0.00,,,0.00,VWS V14.01,2013-07-20 20:22:00,
2013-07-20 16:27:00,86.7,65.9,28.94,NW,315,1.3,2.9,50,0.00,,,0.00,VWS V14.01,2013-07-20 20:27:00,
2013-07-20 16:32:00,86.5,66.3,28.94,NNW,338,2.5,2.5,51,0.00,,,0.00,VWS V14.01,2013-07-20 20:32:00,
2013-07-20 16:38:00,86.4,66.1,28.94,North,0,1.6,3.1,51,0.00,,,0.00,VWS V14.01,2013-07-20 20:38:00,
2013-07-20 16:43:00,86.0,66.3,28.97,NNW,338,6.0,7.4,52,0.00,,,0.00,VWS V14.01,2013-07-20 20:43:00,
2013-07-20 16:48:00,83.8,63.8,28.97,NW,315,4.3,5.4,51,0.00,,,0.00,VWS V14.01,2013-07-20 20:48:00,
2013-07-20 16:53:00,82.4,63.0,28.97,NNW,338,4.3,4.3,52,0.00,,,0.00,VWS V14.01,2013-07-20 20:53:00,
2013-07-20 16:58:00,81.5,63.3,28.97,NW,315,3.6,5.4,54,0.00,,,0.00,VWS V14.01,2013-07-20 20:58:00,
2013-07-20 17:03:00,81.0,63.3,28.97,NNW,338,1.6,2.7,55,0.00,,,0.00,VWS V14.01,2013-07-20 21:03:00,
2013-07-20 17:08:00,80.4,63.3,28.97,SW,225,0.0,0.0,56,0.00,,,0.00,VWS V14.01,2013-07-20 21:08:00,
2013-07-20 17:13:00,80.1,63.5,28.97,NW,315,2.2,2.2,57,0.00,,,0.00,VWS V14.01,2013-07-20 21:13:00,
2013-07-20 17:18:00,80.1,64.0,28.97,NNW,338,0.0,0.0,58,0.00,,,0.00,VWS V14.01,2013-07-20 21:18:00,
2013-07-20 17:23:00,80.1,64.5,28.97,North,0,0.0,0.0,59,0.00,,,0.00,VWS V14.01,2013-07-20 21:23:00,
2013-07-20 17:28:00,79.7,65.1,28.97,South,180,0.0,0.0,61,0.00,,,0.00,VWS V14.01,2013-07-20 21:28:00,
2013-07-20 17:34:00,79.7,65.1,28.97,SE,135,0.0,0.0,61,0.00,,,0.00,VWS V14.01,2013-07-20 21:34:00,
2013-07-20 17:39:00,79.9,65.7,28.97,SE,135,0.0,0.0,62,0.00,,,0.00,VWS V14.01,2013-07-20 21:39:00,
2013-07-20 17:44:00,80.1,65.9,28.97,SSE,158,0.0,0.0,62,0.00,,,0.00,VWS V14.01,2013-07-20 21:44:00,
2013-07-20 17:49:00,80.4,67.1,28.97,South,180,1.1,1.1,64,0.00,,,0.00,VWS V14.01,2013-07-20 21:49:00,
2013-07-20 17:54:00,80.8,66.6,28.97,SW,225,1.3,2.2,62,0.00,,,0.00,VWS V14.01,2013-07-20 21:54:00,
2013-07-20 17:59:00,81.0,66.7,28.94,SSE,158,2.0,2.5,62,0.00,,,0.00,VWS V14.01,2013-07-20 21:59:00,
2013-07-20 18:04:00,81.1,66.4,28.94,NW,315,0.9,0.9,61,0.00,,,0.00,VWS V14.01,2013-07-20 22:04:00,
2013-07-20 18:09:00,81.5,66.8,28.94,East,90,0.0,1.3,61,0.00,,,0.00,VWS V14.01,2013-07-20 22:09:00,
2013-07-20 18:14:00,81.7,66.9,28.94,SSW,202,2.0,2.0,61,0.00,,,0.00,VWS V14.01,2013-07-20 22:14:00,
2013-07-20 18:19:00,81.5,66.8,28.94,East,90,0.0,0.0,61,0.00,,,0.00,VWS V14.01,2013-07-20 22:19:00,
2013-07-20 18:24:00,81.5,67.2,28.94,North,0,0.0,0.0,62,0.00,,,0.00,VWS V14.01,2013-07-20 22:24:00,
2013-07-20 18:29:00,81.5,66.8,28.94,West,270,0.0,0.0,61,0.00,,,0.00,VWS V14.01,2013-07-20 22:29:00,
2013-07-20 18:34:00,81.5,67.2,28.94,NNW,338,0.0,0.0,62,0.00,,,0.00,VWS V14.01,2013-07-20 22:34:00,
2013-07-20 18:39:00,81.1,66.9,28.94,NNE,22,0.0,0.0,62,0.00,,,0.00,VWS V14.01,2013-07-20 22:39:00,
2013-07-20 18:44:00,81.1,67.4,28.94,East,90,0.0,0.0,63,0.00,,,0.00,VWS V14.01,2013-07-20 22:44:00,
2013-07-20 18:50:00,81.3,68.4,28.94,NW,315,1.6,2.5,65,0.00,,,0.00,VWS V14.01,2013-07-20 22:50:00,
2013-07-20 18:55:00,81.3,68.4,28.94,ESE,112,0.0,0.0,65,0.00,,,0.00,VWS V14.01,2013-07-20 22:55:00,
2013-07-20 19:00:00,81.1,68.3,28.94,NNW,338,0.9,1.1,65,0.00,,,0.00,VWS V14.01,2013-07-20 23:00:00,
2013-07-20 19:05:00,81.0,68.1,28.94,NW,315,0.9,1.1,65,0.00,,,0.00,VWS V14.01,2013-07-20 23:05:00,
2013-07-20 19:10:00,81.0,68.5,28.94,NW,315,1.3,1.3,66,0.00,,,0.00,VWS V14.01,2013-07-20 23:10:00,
2013-07-20 19:15:00,80.6,68.2,28.97,NW,315,0.0,1.3,66,0.00,,,0.00,VWS V14.01,2013-07-20 23:15:00,
2013-07-20 19:20:00,80.6,68.2,28.97,NW,315,2.5,2.5,66,0.00,,,0.00,VWS V14.01,2013-07-20 23:20:00,
2013-07-20 19:25:00,80.2,68.3,28.97,NW,315,2.0,2.0,67,0.00,,,0.00,VWS V14.01,2013-07-20 23:25:00,
2013-07-20 19:30:00,80.1,67.7,28.97,NW,315,2.0,2.0,66,0.00,,,0.00,VWS V14.01,2013-07-20 23:30:00,
2013-07-20 19:35:00,79.7,66.9,28.97,West,270,0.0,1.3,65,0.00,,,0.00,VWS V14.01,2013-07-20 23:35:00,
2013-07-20 19:40:00,79.5,66.7,28.97,NW,315,2.0,2.0,65,0.00,,,0.00,VWS V14.01,2013-07-20 23:40:00,
2013-07-20 19:45:00,79.3,66.6,28.97,NNW,338,1.1,1.1,65,0.00,,,0.00,VWS V14.01,2013-07-20 23:45:00,
2013-07-20 19:50:00,79.2,66.4,28.97,WNW,292,0.9,1.3,65,0.00,,,0.00,VWS V14.01,2013-07-20 23:50:00,
2013-07-20 19:56:00,79.0,66.7,29.00,NW,315,0.9,1.1,66,0.00,,,0.00,VWS V14.01,2013-07-20 23:56:00,
2013-07-20 20:01:00,78.8,66.5,29.00,North,0,0.9,1.1,66,0.00,,,0.00,VWS V14.01,2013-07-21 00:01:00,
2013-07-20 20:06:00,78.8,66.5,29.00,South,180,0.0,1.3,66,0.00,,,0.00,VWS V14.01,2013-07-21 00:06:00,
2013-07-20 20:11:00,78.6,66.3,29.00,NE,45,1.1,1.1,66,0.00,,,0.00,VWS V14.01,2013-07-21 00:11:00,
2013-07-20 20:16:00,78.6,66.3,29.00,NW,315,0.0,0.0,66,0.00,,,0.00,VWS V14.01,2013-07-21 00:16:00,
2013-07-20 20:21:00,78.4,66.2,29.00,SE,135,0.0,0.0,66,0.00,,,0.00,VWS V14.01,2013-07-21 00:21:00,
2013-07-20 20:26:00,78.3,66.0,29.00,NE,45,0.0,0.0,66,0.00,,,0.00,VWS V14.01,2013-07-21 00:26:00,
2013-07-20 20:31:00,78.3,66.0,29.00,NE,45,0.0,0.0,66,0.00,,,0.00,VWS V14.01,2013-07-21 00:31:00,
2013-07-20 20:36:00,78.3,66.0,29.00,ENE,68,0.0,0.0,66,0.00,,,0.00,VWS V14.01,2013-07-21 00:36:00,
2013-07-20 20:41:00,78.1,65.8,29.00,NNE,22,0.0,0.0,66,0.00,,,0.00,VWS V14.01,2013-07-21 00:41:00,
2013-07-20 20:46:00,77.9,65.6,29.00,East,90,0.0,0.0,66,0.00,,,0.00,VWS V14.01,2013-07-21 00:46:00,
2013-07-20 20:51:00,77.7,65.9,29.00,East,90,0.0,0.0,67,0.00,,,0.00,VWS V14.01,2013-07-21 00:51:00,
2013-07-20 20:56:00,77.7,65.5,28.97,NNE,22,0.0,0.0,66,0.00,,,0.00,VWS V14.01,2013-07-21 00:56:00,
2013-07-20 21:01:00,77.5,65.3,28.97,North,0,0.9,1.1,66,0.00,,,0.00,VWS V14.01,2013-07-21 01:01:00,
2013-07-20 21:07:00,77.4,65.6,28.97,East,90,0.0,0.0,67,0.00,,,0.00,VWS V14.01,2013-07-21 01:07:00,
2013-07-20 21:12:00,77.2,65.4,29.00,ENE,68,0.0,0.0,67,0.00,,,0.00,VWS V14.01,2013-07-21 01:12:00,
2013-07-20 21:17:00,77.2,65.4,29.00,NNE,22,0.0,0.0,67,0.00,,,0.00,VWS V14.01,2013-07-21 01:17:00,
2013-07-20 21:22:00,77.2,65.4,29.00,SE,135,0.0,0.0,67,0.00,,,0.00,VWS V14.01,2013-07-21 01:22:00,
2013-07-20 21:27:00,77.0,65.2,29.00,East,90,0.0,0.0,67,0.00,,,0.00,VWS V14.01,2013-07-21 01:27:00,
2013-07-20 21:32:00,76.8,65.0,29.00,East,90,0.0,0.0,67,0.00,,,0.00,VWS V14.01,2013-07-21 01:32:00,
2013-07-20 21:37:00,77.0,65.2,29.00,East,90,0.0,0.0,67,0.00,,,0.00,VWS V14.01,2013-07-21 01:37:00,
2013-07-20 21:42:00,76.8,65.5,29.00,East,90,0.0,0.0,68,0.00,,,0.00,VWS V14.01,2013-07-21 01:42:00,
2013-07-20 21:47:00,76.8,65.5,29.00,NE,45,0.0,0.0,68,0.00,,,0.00,VWS V14.01,2013-07-21 01:47:00,
2013-07-20 21:52:00,76.8,65.5,29.00,North,0,0.0,0.0,68,0.00,,,0.00,VWS V14.01,2013-07-21 01:52:00,
2013-07-20 21:57:00,76.6,65.3,29.00,North,0,0.0,0.0,68,0.00,,,0.00,VWS V14.01,2013-07-21 01:57:00,
2013-07-20 22:02:00,76.5,65.1,29.00,East,90,0.0,0.0,68,0.00,,,0.00,VWS V14.01,2013-07-21 02:02:00,
2013-07-20 22:07:00,76.3,65.4,29.00,East,90,0.0,0.0,69,0.00,,,0.00,VWS V14.01,2013-07-21 02:07:00,
2013-07-20 22:13:00,76.3,65.4,28.97,NNW,338,0.0,0.0,69,0.00,,,0.00,VWS V14.01,2013-07-21 02:13:00,
2013-07-20 22:18:00,76.1,65.2,28.97,North,0,0.0,0.0,69,0.00,,,0.00,VWS V14.01,2013-07-21 02:18:00,
2013-07-20 22:23:00,75.9,65.0,28.97,North,0,0.0,0.0,69,0.00,,,0.00,VWS V14.01,2013-07-21 02:23:00,
2013-07-20 22:28:00,75.9,65.0,29.00,North,0,0.0,0.0,69,0.00,,,0.00,VWS V14.01,2013-07-21 02:28:00,
2013-07-20 22:33:00,75.9,65.0,29.00,East,90,0.0,0.0,69,0.00,,,0.00,VWS V14.01,2013-07-21 02:33:00,
2013-07-20 22:38:00,75.9,65.0,29.00,East,90,0.0,0.0,69,0.00,,,0.00,VWS V14.01,2013-07-21 02:38:00,
2013-07-20 22:43:00,75.7,65.3,29.00,North,0,0.0,0.0,70,0.00,,,0.00,VWS V14.01,2013-07-21 02:43:00,
2013-07-20 22:48:00,75.7,65.3,29.00,East,90,0.0,0.0,70,0.00,,,0.00,VWS V14.01,2013-07-21 02:48:00,
2013-07-20 22:53:00,75.7,65.7,29.00,East,90,0.0,0.0,71,0.00,,,0.00,VWS V14.01,2013-07-21 02:53:00,
2013-07-20 22:58:00,75.6,65.9,29.00,ESE,112,0.0,0.0,72,0.00,,,0.00,VWS V14.01,2013-07-21 02:58:00,
2013-07-20 23:03:00,75.6,65.9,29.00,SE,135,0.0,0.0,72,0.00,,,0.00,VWS V14.01,2013-07-21 03:03:00,
2013-07-20 23:08:00,75.6,65.9,29.00,SE,135,0.0,0.0,72,0.00,,,0.00,VWS V14.01,2013-07-21 03:08:00,
2013-07-20 23:13:00,75.6,65.9,29.00,NE,45,0.0,0.0,72,0.00,,,0.00,VWS V14.01,2013-07-21 03:13:00,
2013-07-20 23:18:00,75.6,65.5,29.00,North,0,1.1,1.1,71,0.00,,,0.00,VWS V14.01,2013-07-21 03:18:00,
2013-07-20 23:23:00,75.4,65.7,29.00,NW,315,0.0,0.0,72,0.00,,,0.00,VWS V14.01,2013-07-21 03:23:00,
2013-07-20 23:28:00,75.4,65.7,29.00,North,0,0.0,0.0,72,0.00,,,0.00,VWS V14.01,2013-07-21 03:28:00,
2013-07-20 23:33:00,75.2,65.6,29.00,North,0,0.0,0.0,72,0.00,,,0.00,VWS V14.01,2013-07-21 03:33:00,
2013-07-20 23:38:00,75.0,65.4,29.00,NNW,338,2.0,2.2,72,0.00,,,0.00,VWS V14.01,2013-07-21 03:38:00,
2013-07-20 23:43:00,74.8,65.6,29.00,NW,315,1.6,2.2,73,0.00,,,0.00,VWS V14.01,2013-07-21 03:43:00,
2013-07-20 23:48:00,74.7,65.8,29.00,WNW,292,1.3,2.5,74,0.00,,,0.00,VWS V14.01,2013-07-21 03:48:00,
2013-07-20 23:53:00,74.5,65.7,29.00,NW,315,1.6,1.6,74,0.00,,,0.00,VWS V14.01,2013-07-21 03:53:00,
2013-07-20 23:58:00,74.5,65.7,29.03,NW,315,1.6,1.6,74,0.00,,,0.00,VWS V14.01,2013-07-21 03:58:00,